This demonstration page uses our WeatherBlox Daily Observations layout. Learn more.

Left ArrowRight Arrow

Hourly Observations for June 4, 2016

Temp ( °F °C ) Dew Point ( °F °C ) Humidity (%) Winds ( mph kmh ) Pressure ( in mb ) Visibility ( mi km ) Precip ( " mm )
12:53 am 00:53 Clear 75 23.9 50 10 41 41 NW 3 6 29.85 1011 10 16 0.00 0.00
1:53 am 01:53 Clear 70 21.1 51 10.6 51 51 Calm 29.86 1011 10 16 0.00 0.00
2:53 am 02:53 Clear 70 21.1 52 11.1 53 53 Calm 29.86 1011 10 16 0.00 0.00
3:53 am 03:53 Clear 70 21 52 11 53 53 NNW 5 7 29.88 1012 10 16 0.00 0.00
4:53 am 04:53 Clear 69 20.6 49 9.4 49 49 NNW 6 9 29.85 1011 10 16 0.00 0.00
5:53 am 05:53 Sunny 68 20 50 10 53 53 NNW 5 7 29.86 1011 10 16 0.00 0.00
6:53 am 06:53 Sunny 70 21.1 54 12.2 57 57 Calm 29.87 1011 10 16 0.00 0.00
7:53 am 07:53 Sunny 73 22.8 54 12.2 51 51 Calm 29.87 1012 10 16 0.00 0.00
8:53 am 08:53 Sunny 80 26.7 53 11.7 39 39 WNW 3 6 29.88 1012 10 16 0.00 0.00
9:53 am 09:53 Sunny 84 28.9 53 11.7 34 34 NW 5 7 29.87 1012 10 16 0.00 0.00
10:53 am 10:53 Sunny 90 32.2 54 12.2 29 29 VRB 6 9 29.86 1011 10 16 0.00 0.00
11:53 am 11:53 Sunny 94 34.4 50 10 22 22 Calm 29.85 1011 10 16 0.00 0.00
12:53 pm 12:53 Sunny 96 35.6 52 11.1 23 23 VRB 5 7 29.84 1011 10 16 0.00 0.00
1:53 pm 13:53 Sunny 95 35 49 9.4 21 21 VRB 3 6 29.84 1011 10 16 0.00 0.00
2:53 pm 14:53 Sunny 96 35.6 48 8.9 19 19 VRB 3 6 29.83 1010 10 16 0.00 0.00
3:53 pm 15:53 Sunny 96 35.6 45 7.2 17 17 SSW 5 7 29.82 1010 10 16 0.00 0.00
4:53 pm 16:53 Sunny 97 36.1 43 6.1 16 16 Calm 29.81 1010 10 16 0.00 0.00
5:53 pm 17:53 Sunny 97 36.1 44 6.7 16 16 SE 3 6 29.80 1009 10 16 0.00 0.00
6:53 pm 18:53 Sunny 92 33.3 53 11.7 27 27 Calm 29.80 1009 10 16 0.00 0.00
7:53 pm 19:53 Sunny 89 31.7 54 12.2 30 30 Calm 29.80 1009 10 16 0.00 0.00
8:53 pm 20:53 Clear 84 28.9 59 15 43 43 Calm 29.80 1009 10 16 0.00 0.00
9:53 pm 21:53 Clear 80 26.7 61 16.1 52 52 Calm 29.81 1010 10 16 0.00 0.00
10:53 pm 22:53 Clear 78 25.6 61 16.1 56 56 Calm 29.83 1010 10 16 0.00 0.00
11:53 pm 23:53 Mostly Clear 80 26.7 61 16.1 52 52 WNW 10 17 29.82 1010 10 16 0.00 0.00

Powered by AerisWeather